Location: Bennemühlen
(52.5740°N, 9.7135°E)
Time: 06:08:29
(UTC+00:00)

Altair - All Passes

Search period start: 18 February 2026 00:00
Search period end: 28 February 2026 00:00
Orbit: 1502 x 1682 km, 47.2° (Epoch: 17 February)

Date Brightness Start Highest point End Pass type
(mag) Time Alt. Az. Time Alt. Az. Time Alt. Az.
18 Feb - 03:03:10 10° SSW 03:10:30 28° SE 03:17:59 10° E visible
18 Feb - 05:04:49 10° SW 05:13:43 55° SSE 05:22:55 10° E visible
18 Feb - 07:08:33 10° W 07:17:45 64° S 07:27:17 10° ESE daylight
18 Feb - 09:12:49 10° W 09:21:37 45° SSW 09:30:43 10° SE daylight
18 Feb - 11:18:27 10° W 11:24:29 19° SW 11:30:39 10° S daylight
19 Feb - 02:38:21 10° S 02:45:26 26° SE 02:52:38 10° E visible
19 Feb - 04:39:43 10° SW 04:48:33 53° SSE 04:57:40 10° E visible
19 Feb - 06:43:22 10° W 06:52:32 64° S 07:02:04 10° ESE daylight
19 Feb - 08:47:37 10° W 08:56:27 46° SSW 09:05:37 10° SE daylight
19 Feb - 10:53:00 10° W 10:59:24 20° SW 11:05:58 10° S daylight
20 Feb - 02:13:33 10° S 02:20:22 24° SE 02:27:16 10° E visible
20 Feb - 04:14:38 10° SW 04:23:24 51° SSE 04:32:25 10° E visible
20 Feb - 06:18:12 10° W 06:27:21 65° S 06:36:50 10° ESE daylight
20 Feb - 08:22:24 10° W 08:31:17 48° SSW 08:40:29 10° SE daylight
20 Feb - 10:27:37 10° W 10:34:20 22° SW 10:41:13 10° S daylight
21 Feb - 01:48:48 10° S 01:55:18 22° SE 02:01:53 10° E visible
21 Feb - 03:49:33 10° SW 03:58:15 49° SSE 04:07:10 10° E visible
21 Feb - 05:53:02 10° WSW 06:02:09 65° S 06:11:36 10° ESE visible
21 Feb - 07:57:12 10° W 08:06:07 50° SSW 08:15:21 10° SE daylight
21 Feb - 10:02:15 10° W 10:09:15 24° SW 10:16:25 10° S daylight
22 Feb - 01:24:05 10° S 01:30:15 20° SE 01:36:27 10° E visible
22 Feb - 03:24:29 10° SW 03:33:06 47° SSE 03:41:55 10° E visible
22 Feb - 05:27:51 10° WSW 05:36:57 64° S 05:46:21 10° E visible
22 Feb - 07:32:01 10° W 07:40:57 52° SSW 07:50:13 10° SE daylight
22 Feb - 09:36:55 10° W 09:44:10 25° SW 09:51:35 10° S daylight
23 Feb - 00:59:27 10° S 01:05:12 19° SE 01:11:00 10° E visible
23 Feb - 02:59:26 10° SW 03:07:58 45° SSE 03:16:40 10° E visible
23 Feb - 05:02:41 10° WSW 05:11:46 64° S 05:21:08 10° E visible
23 Feb - 07:06:49 10° W 07:15:47 54° SSW 07:25:04 10° SE daylight
23 Feb - 09:11:36 10° W 09:19:03 27° SW 09:26:43 10° S daylight
24 Feb - 00:34:52 10° SSE 00:40:10 17° SE 00:45:30 10° E visible
24 Feb - 02:34:24 10° SW 02:42:50 43° SSE 02:51:26 10° E visible
24 Feb - 04:37:32 10° WSW 04:46:35 64° S 04:55:54 10° E visible
24 Feb - 06:41:38 10° W 06:50:36 55° SSW 06:59:53 10° SE daylight
24 Feb - 08:46:19 10° W 08:53:57 29° SW 09:01:49 10° SSE daylight
25 Feb - 00:10:23 10° SSE 00:15:08 15° SE 00:19:54 10° E visible
25 Feb - 02:09:22 10° SW 02:17:42 41° SSE 02:26:11 10° E visible
25 Feb - 04:12:22 10° WSW 04:21:24 63° S 04:30:40 10° E visible
25 Feb - 06:16:26 10° W 06:25:26 57° SSW 06:34:43 10° ESE daylight
25 Feb - 08:21:02 10° W 08:28:51 31° SW 08:36:53 10° SSE daylight
25 Feb - 23:46:00 10° SSE 23:50:07 14° SE 23:54:13 10° E visible
26 Feb - 01:44:22 10° SSW 01:52:35 39° SSE 02:00:56 10° E visible
26 Feb - 03:47:13 10° WSW 03:56:13 62° S 04:05:26 10° E visible
26 Feb - 05:51:16 10° W 06:00:15 58° SSW 06:09:32 10° ESE daylight
26 Feb - 07:55:47 10° W 08:03:44 33° SW 08:11:55 10° SSE daylight
26 Feb - 23:21:50 10° SSE 23:25:05 12° SE 23:28:21 10° ESE visible
27 Feb - 01:19:23 10° SSW 01:27:29 37° SE 01:35:40 10° E visible
27 Feb - 03:22:04 10° WSW 03:31:02 61° S 03:40:13 10° E visible
27 Feb - 05:26:05 10° W 05:35:04 59° SSW 05:44:21 10° ESE visible
27 Feb - 07:30:32 10° W 07:38:37 34° SW 07:46:57 10° SSE daylight
27 Feb - 09:38:55 10° WSW 09:41:00 11° WSW 09:43:05 10° SW daylight
27 Feb - 22:58:06 10° SE 23:00:05 11° SE 23:02:03 10° ESE visible
